This is the latest recevied weather packets stored in our database for station/object N5XJB. If no packets are shown the sender has not sent any weather packets the latest 10 day(s).
| Time | Temp. | Humidity | Pressure | Rain* | Wind** | Luminosity | Snow |
|---|---|---|---|---|---|---|---|
| 1777872111 | 17.22° C | 73% | 1019.3 hPa | 0 mm | - | 0 W/m² | - |
| 1777871807 | 17.22° C | 73% | 1019.3 hPa | 0 mm | - | 0 W/m² | - |
| 1777871504 | 17.22° C | 72% | 1019.6 hPa | 0 mm | - | 0 W/m² | - |
| 1777871201 | 17.22° C | 72% | 1019.3 hPa | 0 mm | - | 0 W/m² | - |
| 1777870898 | 16.67° C | 75% | 1019.3 hPa | 0 mm | - | 0 W/m² | - |
| 1777870595 | 17.22° C | 75% | 1019.3 hPa | 0 mm | - | 0 W/m² | - |
| 1777870295 | 17.22° C | 74% | 1019.6 hPa | 0 mm | - | 0 W/m² | - |
| 1777869993 | 17.22° C | 74% | 1019.6 hPa | 0 mm | - | 0 W/m² | - |
| 1777869689 | 17.78° C | 73% | 1019.6 hPa | 0 mm | - | 0 W/m² | - |
| 1777869387 | 17.78° C | 72% | 1019.6 hPa | 0 mm | - | 0 W/m² | - |
| 1777869084 | 17.78° C | 70% | 1019.6 hPa | 0 mm | - | 0 W/m² | - |
| 1777868781 | 18.33° C | 70% | 1019.6 hPa | 0 mm | - | 0 W/m² | - |
| 1777868478 | 18.33° C | 67% | 1019.6 hPa | 0 mm | - | 0 W/m² | - |
| 1777868173 | 18.89° C | 67% | 1019.6 hPa | 0 mm | - | 0 W/m² | - |
| 1777867870 | 18.89° C | 66% | 1019.6 hPa | 0 mm | - | 0 W/m² | - |
| 1777867567 | 18.89° C | 65% | 1019.6 hPa | 0 mm | - | 0 W/m² | - |
| 1777867264 | 19.44° C | 65% | 1019.6 hPa | 0 mm | - | 0 W/m² | - |
| 1777866960 | 19.44° C | 64% | 1019.6 hPa | 0 mm | - | 0 W/m² | - |
| 1777866656 | 19.44° C | 64% | 1019.6 hPa | 0 mm | - | 0 W/m² | - |
| 1777866355 | 19.44° C | 62% | 1019.6 hPa | 0 mm | - | 0 W/m² | - |
| 1777866051 | 19.44° C | 64% | 1019.6 hPa | 0 mm | - | 0 W/m² | - |
| 1777865749 | 19.44° C | 62% | 1019.6 hPa | 0 mm | - | 0 W/m² | - |
| 1777865446 | 20° C | 62% | 1019.6 hPa | 0 mm | - | 0 W/m² | - |
| 1777865143 | 20° C | 62% | 1019.6 hPa | 0 mm | - | 0 W/m² | - |
| 1777864840 | 20° C | 62% | 1019.6 hPa | 0 mm | - | 0 W/m² | - |
* Rain latest hour (hover to see other rain measurements)
** Current wind speed in m/s (hover to see current wind gust speed)